ZSJRH FAGG-FAPE

Flight info

Callsign ZSJRH
Flight time 0h 42m
Altitude 15000
Route APGUP DCT OKSET DCT PEV
Aircraft PC12/L-SDFGRWY/S

Departure

Time 2026-04-14 13:56
Airport George Airport (FAGG)

Arrival

Time 2026-04-14 14:39
Airport Chief Dawid Stuurman International Airport (FAPE)
Time Latitude Longitude Altitude Speed Heading
2026-04-14 13:49 -34.00189 22.37627 654 ft 0 kts 270°
2026-04-14 13:53 -34.00189 22.37637 652 ft 2 kts 270°
2026-04-14 13:53 -34.00189 22.37651 654 ft 2 kts 270°
2026-04-14 13:53 -34.00189 22.37654 654 ft 0 kts 270°
2026-04-14 13:54 -34.00190 22.37652 654 ft 1 kts 257°
2026-04-14 13:54 -34.00216 22.37658 653 ft 12 kts 148°
2026-04-14 13:54 -34.00323 22.37680 654 ft 16 kts 189°
2026-04-14 13:54 -34.00352 22.37512 652 ft 28 kts 268°
2026-04-14 13:55 -34.00360 22.37241 652 ft 37 kts 268°
2026-04-14 13:55 -34.00385 22.36947 652 ft 32 kts 243°
2026-04-14 13:55 -34.00511 22.36795 651 ft 16 kts 197°
2026-04-14 13:55 -34.00582 22.36874 650 ft 30 kts 88°
2026-04-14 13:56 -34.00566 22.37377 654 ft 87 kts 88°
2026-04-14 13:56 -34.00537 22.38248 754 ft 110 kts 88°
2026-04-14 13:56 -34.00483 22.39149 1171 ft 118 kts 90°
2026-04-14 13:56 -34.00393 22.40345 1256 ft 163 kts 88°
2026-04-14 13:57 -34.00478 22.41629 1952 ft 148 kts 112°
2026-04-14 13:57 -34.00854 22.42736 2720 ft 139 kts 111°
2026-04-14 13:57 -34.01155 22.43822 3385 ft 136 kts 103°
2026-04-14 13:57 -34.01379 22.44933 3956 ft 137 kts 98°
2026-04-14 13:58 -34.01548 22.46069 4533 ft 139 kts 95°
2026-04-14 13:58 -34.01692 22.47224 5112 ft 140 kts 94°
2026-04-14 13:58 -34.01826 22.48398 5679 ft 142 kts 93°
2026-04-14 13:58 -34.01911 22.49187 6055 ft 144 kts 93°
2026-04-14 13:59 -34.02073 22.50785 6760 ft 147 kts 94°
2026-04-14 13:59 -34.02193 22.52014 7293 ft 149 kts 94°
2026-04-14 13:59 -34.02318 22.53266 7830 ft 152 kts 94°
2026-04-14 13:59 -34.02447 22.54540 8390 ft 154 kts 94°
2026-04-14 14:00 -34.02577 22.55830 8953 ft 156 kts 95°
2026-04-14 14:00 -34.02708 22.57144 9520 ft 159 kts 95°
2026-04-14 14:00 -34.02840 22.58457 10031 ft 160 kts 95°
2026-04-14 14:00 -34.02975 22.59795 10552 ft 161 kts 95°
2026-04-14 14:01 -34.03112 22.61142 11073 ft 162 kts 95°
2026-04-14 14:01 -34.03249 22.62498 11599 ft 164 kts 95°
2026-04-14 14:01 -34.03386 22.63863 12138 ft 165 kts 95°
2026-04-14 14:01 -34.03525 22.65241 12680 ft 166 kts 95°
2026-04-14 14:02 -34.03663 22.66625 13221 ft 167 kts 95°
2026-04-14 14:02 -34.03801 22.68016 13742 ft 168 kts 95°
2026-04-14 14:02 -34.03940 22.69418 14202 ft 169 kts 95°
2026-04-14 14:02 -34.04080 22.70832 14657 ft 171 kts 95°
2026-04-14 14:03 -34.04231 22.72357 14787 ft 198 kts 95°
2026-04-14 14:03 -34.04400 22.74125 14834 ft 225 kts 95°
2026-04-14 14:03 -34.04591 22.76103 14858 ft 248 kts 95°
2026-04-14 14:03 -34.04727 22.77498 14866 ft 259 kts 95°
2026-04-14 14:04 -34.05022 22.80492 14859 ft 276 kts 96°
2026-04-14 14:04 -34.05175 22.82034 14853 ft 282 kts 96°
2026-04-14 14:04 -34.05491 22.85195 14843 ft 290 kts 96°
2026-04-14 14:04 -34.05736 22.87627 14829 ft 294 kts 96°
2026-04-14 14:05 -34.05982 22.90092 14818 ft 297 kts 95°
2026-04-14 14:05 -34.06144 22.91738 14815 ft 298 kts 95°
2026-04-14 14:05 -34.06386 22.94223 14810 ft 299 kts 95°
2026-04-14 14:05 -34.06625 22.96716 14806 ft 299 kts 95°
2026-04-14 14:06 -34.06867 22.99212 14799 ft 300 kts 95°
2026-04-14 14:06 -34.07109 23.01711 14806 ft 300 kts 95°
2026-04-14 14:06 -34.07350 23.04214 14807 ft 301 kts 95°
2026-04-14 14:06 -34.07592 23.06724 14803 ft 301 kts 95°
2026-04-14 14:07 -34.07833 23.09229 14801 ft 301 kts 95°
2026-04-14 14:07 -34.08073 23.11736 14798 ft 301 kts 96°
2026-04-14 14:07 -34.08310 23.14245 14798 ft 300 kts 96°
2026-04-14 14:07 -34.08546 23.16747 14801 ft 300 kts 96°
2026-04-14 14:08 -34.08785 23.19246 14799 ft 300 kts 96°
2026-04-14 14:08 -34.09025 23.21745 14796 ft 300 kts 96°
2026-04-14 14:08 -34.09264 23.24243 14795 ft 300 kts 96°
2026-04-14 14:08 -34.09502 23.26742 14797 ft 300 kts 96°
2026-04-14 14:09 -34.09739 23.29243 14793 ft 300 kts 96°
2026-04-14 14:09 -34.09968 23.31641 14791 ft 300 kts 96°
2026-04-14 14:09 -34.10185 23.33907 14790 ft 300 kts 96°
2026-04-14 14:09 -34.10405 23.36206 14791 ft 299 kts 96°
2026-04-14 14:10 -34.10637 23.38666 14787 ft 299 kts 96°
2026-04-14 14:10 -34.10870 23.41163 14790 ft 299 kts 96°
2026-04-14 14:10 -34.11101 23.43665 14786 ft 299 kts 96°
2026-04-14 14:10 -34.11328 23.46158 14785 ft 299 kts 96°
2026-04-14 14:11 -34.11554 23.48647 14789 ft 298 kts 96°
2026-04-14 14:11 -34.11784 23.51138 14780 ft 298 kts 96°
2026-04-14 14:11 -34.12013 23.53622 14780 ft 298 kts 96°
2026-04-14 14:11 -34.12244 23.56104 14781 ft 298 kts 96°
2026-04-14 14:12 -34.12474 23.58586 14781 ft 298 kts 96°
2026-04-14 14:12 -34.12703 23.61068 14781 ft 298 kts 96°
2026-04-14 14:12 -34.12932 23.63550 14784 ft 298 kts 96°
2026-04-14 14:12 -34.13159 23.66033 14784 ft 298 kts 96°
2026-04-14 14:13 -34.13382 23.68484 14784 ft 298 kts 96°
2026-04-14 14:13 -34.13607 23.70966 14786 ft 297 kts 96°
2026-04-14 14:13 -34.13834 23.73476 14787 ft 298 kts 96°
2026-04-14 14:13 -34.14059 23.75964 14788 ft 298 kts 96°
2026-04-14 14:14 -34.14278 23.78409 14786 ft 298 kts 96°
2026-04-14 14:14 -34.14503 23.80926 14787 ft 298 kts 96°
2026-04-14 14:14 -34.14726 23.83410 14781 ft 298 kts 96°
2026-04-14 14:14 -34.14947 23.85861 14782 ft 298 kts 96°
2026-04-14 14:15 -34.15171 23.88345 14781 ft 298 kts 96°
2026-04-14 14:15 -34.15395 23.90829 14781 ft 298 kts 96°
2026-04-14 14:15 -34.15618 23.93313 14783 ft 298 kts 96°
2026-04-14 14:15 -34.15839 23.95797 14783 ft 298 kts 96°
2026-04-14 14:16 -34.16060 23.98281 14783 ft 298 kts 96°
2026-04-14 14:16 -34.16279 24.00766 14783 ft 298 kts 96°
2026-04-14 14:16 -34.16499 24.03251 14784 ft 298 kts 96°
2026-04-14 14:17 -34.16936 24.08222 14785 ft 298 kts 96°
2026-04-14 14:17 -34.17156 24.10702 14787 ft 298 kts 96°
2026-04-14 14:17 -34.17375 24.13194 14788 ft 298 kts 96°
2026-04-14 14:17 -34.17592 24.15676 14789 ft 298 kts 95°
2026-04-14 14:18 -34.17808 24.18165 14787 ft 298 kts 96°
2026-04-14 14:18 -34.18022 24.20654 14787 ft 298 kts 96°
2026-04-14 14:18 -34.18235 24.23142 14786 ft 298 kts 95°
2026-04-14 14:18 -34.18450 24.25632 14786 ft 298 kts 96°
2026-04-14 14:19 -34.18666 24.28128 14785 ft 298 kts 96°
2026-04-14 14:19 -34.18881 24.30618 14786 ft 298 kts 96°
2026-04-14 14:19 -34.19096 24.33111 14786 ft 298 kts 95°
2026-04-14 14:19 -34.19309 24.35597 14786 ft 298 kts 95°
2026-04-14 14:20 -34.19523 24.38094 14790 ft 298 kts 95°
2026-04-14 14:20 -34.19735 24.40557 14796 ft 298 kts 95°
2026-04-14 14:20 -34.19951 24.43043 14794 ft 297 kts 95°
2026-04-14 14:20 -34.20165 24.45525 14792 ft 297 kts 95°
2026-04-14 14:21 -34.20373 24.48006 14788 ft 297 kts 95°
2026-04-14 14:21 -34.20575 24.50490 14787 ft 297 kts 95°
2026-04-14 14:21 -34.20779 24.52976 14787 ft 297 kts 95°
2026-04-14 14:21 -34.20986 24.55468 14786 ft 298 kts 95°
2026-04-14 14:22 -34.21195 24.57958 14791 ft 298 kts 95°
2026-04-14 14:22 -34.21404 24.60446 14790 ft 298 kts 95°
2026-04-14 14:22 -34.21586 24.62934 14789 ft 297 kts 92°
2026-04-14 14:22 -34.21467 24.65409 14781 ft 294 kts 77°
2026-04-14 14:23 -34.20903 24.67774 14782 ft 293 kts 70°
2026-04-14 14:23 -34.20328 24.70137 14787 ft 294 kts 73°
2026-04-14 14:23 -34.19839 24.72536 14789 ft 295 kts 75°
2026-04-14 14:23 -34.19399 24.74960 14789 ft 295 kts 76°
2026-04-14 14:24 -34.18974 24.77399 14620 ft 297 kts 76°
2026-04-14 14:24 -34.18546 24.79839 14384 ft 297 kts 76°
2026-04-14 14:24 -34.18107 24.82275 14151 ft 297 kts 76°
2026-04-14 14:24 -34.17662 24.84673 13923 ft 297 kts 75°
2026-04-14 14:25 -34.17201 24.87101 13691 ft 297 kts 75°
2026-04-14 14:25 -34.16735 24.89517 13449 ft 294 kts 75°
2026-04-14 14:25 -34.16268 24.91915 13189 ft 293 kts 75°
2026-04-14 14:25 -34.15798 24.94310 12935 ft 292 kts 74°
2026-04-14 14:26 -34.15328 24.96693 12683 ft 292 kts 74°
2026-04-14 14:26 -34.14858 24.99074 12432 ft 291 kts 74°
2026-04-14 14:26 -34.14387 25.01452 12186 ft 291 kts 74°
2026-04-14 14:26 -34.13918 25.03825 11937 ft 290 kts 74°
2026-04-14 14:27 -34.13449 25.06194 11693 ft 289 kts 74°
2026-04-14 14:27 -34.12985 25.08549 11449 ft 288 kts 74°
2026-04-14 14:27 -34.12523 25.10894 11209 ft 287 kts 74°
2026-04-14 14:27 -34.12062 25.13228 10969 ft 285 kts 74°
2026-04-14 14:28 -34.11602 25.15553 10733 ft 284 kts 74°
2026-04-14 14:28 -34.11298 25.17088 10571 ft 283 kts 74°
2026-04-14 14:28 -34.10686 25.20172 10254 ft 282 kts 73°
2026-04-14 14:28 -34.10236 25.22442 10017 ft 281 kts 73°
2026-04-14 14:29 -34.09782 25.24726 9791 ft 279 kts 73°
2026-04-14 14:29 -34.09476 25.26265 9631 ft 279 kts 73°
2026-04-14 14:29 -34.08877 25.29270 9287 ft 277 kts 73°
2026-04-14 14:29 -34.08577 25.30766 9120 ft 276 kts 73°
2026-04-14 14:30 -34.07974 25.33780 8777 ft 276 kts 73°
2026-04-14 14:30 -34.07677 25.35265 8608 ft 275 kts 73°
2026-04-14 14:30 -34.07075 25.38271 8275 ft 275 kts 73°
2026-04-14 14:30 -34.06778 25.39756 8108 ft 275 kts 73°
2026-04-14 14:31 -34.06179 25.42746 7780 ft 274 kts 73°
2026-04-14 14:31 -34.05882 25.44226 7620 ft 274 kts 73°
2026-04-14 14:31 -34.05283 25.47209 7299 ft 273 kts 74°
2026-04-14 14:31 -34.04987 25.48683 7140 ft 273 kts 74°
2026-04-14 14:32 -34.04397 25.51624 6827 ft 271 kts 74°
2026-04-14 14:32 -34.04097 25.53114 6667 ft 270 kts 74°
2026-04-14 14:32 -34.03512 25.56015 6353 ft 268 kts 74°
2026-04-14 14:32 -34.03218 25.57476 6189 ft 261 kts 74°
2026-04-14 14:33 -34.02651 25.60293 5853 ft 263 kts 74°
2026-04-14 14:33 -34.02363 25.61715 5688 ft 264 kts 74°
2026-04-14 14:33 -34.01780 25.64590 5355 ft 264 kts 74°
2026-04-14 14:33 -34.01490 25.66017 5192 ft 265 kts 74°
2026-04-14 14:34 -34.00620 25.70320 4707 ft 262 kts 73°
2026-04-14 14:34 -34.00043 25.73163 4373 ft 259 kts 73°
2026-04-14 14:34 -33.99758 25.74552 4212 ft 257 kts 73°
2026-04-14 14:35 -33.98701 25.77012 3858 ft 242 kts 41°
2026-04-14 14:35 -33.97791 25.77740 3684 ft 234 kts 20°
2026-04-14 14:35 -33.95698 25.77800 3342 ft 228 kts 338°
2026-04-14 14:35 -33.94814 25.77141 3177 ft 226 kts 317°
2026-04-14 14:36 -33.93937 25.74941 2758 ft 218 kts 280°
2026-04-14 14:36 -33.93820 25.73757 2371 ft 208 kts 278°
2026-04-14 14:36 -33.93841 25.71480 1957 ft 202 kts 262°
2026-04-14 14:36 -33.94106 25.70409 1793 ft 202 kts 250°
2026-04-14 14:37 -33.95008 25.68500 1446 ft 185 kts 240°
2026-04-14 14:37 -33.95450 25.67700 1289 ft 163 kts 240°
2026-04-14 14:37 -33.96113 25.66439 1078 ft 110 kts 243°
2026-04-14 14:37 -33.96350 25.65935 983 ft 99 kts 245°
2026-04-14 14:38 -33.96796 25.64949 820 ft 104 kts 244°
2026-04-14 14:38 -33.97044 25.64439 742 ft 105 kts 243°
2026-04-14 14:38 -33.97571 25.63456 566 ft 106 kts 240°
2026-04-14 14:38 -33.97846 25.62953 484 ft 105 kts 239°
2026-04-14 14:39 -33.98361 25.61969 308 ft 105 kts 236°
2026-04-14 14:39 -33.98597 25.61515 235 ft 87 kts 236°
2026-04-14 14:39 -33.98826 25.61058 233 ft 17 kts 272°
2026-04-14 14:39 -33.98768 25.60980 231 ft 23 kts 327°
2026-04-14 14:40 -33.98659 25.60893 231 ft 16 kts 327°
2026-04-14 14:40 -33.98634 25.60831 231 ft 14 kts 243°
2026-04-14 14:40 -33.98641 25.60818 231 ft 0 kts 236°